Content
SEND FEEDBACK

Daily
Averages
Monthly
Summary
United States of America

NUGENT, TEXAS


Home > North America > United States > Texas
Elevation: 1750 feet     Latitude: 32 43N     Longitude: 099 43W

WEATHER
 
SELECT A DAY
Number of Records: 159,581;   Date Range: 7/1/96 - 10/30/14
 
SHARE

PRINT THIS DATA

[ ← Previous Day ]
WEATHER ALMANAC - JANUARY 23, 2013
[ Next Day → ]
[ °C ]   °F
Weather ElementAverageHighLow
Temperature60.3 °F77.5 °F (3:55 pm)46.4 °F (7:55 am)
Dewpoint47.4 °F53.6 °F (9:55 am)41 °F (3:55 pm)
Humidity67 %100 % (7:55 am)27 % (3:55 pm)
Barometer30.15 in30.23 in (10:55 am)30.08 in (4:55 pm)
Wind Speed8.7 mph16.1 mph (11:55 pm)
Weather ElementAverage
Visibility9.8 mi
Wind DirectionS (179.6 °)

Weather ElementTotal
Precipitation---
Heating Degree Days3.1 (Base 65)
Growing Degree Days12 (Base 50)
Averaged from 23 records on January 23, 2013
WEATHER CONDITIONS BREAKOUT
WIND DIRECTION BREAKOUT
WEATHER BY HOUR - JANUARY 23, 2013
[ °C ]   °F
Local TimeTemperatureDewpointHumidityBarometerVisibilityWind DirectionWind SpeedGust SpeedPrecipitationEventsConditions
1:55 AM52.3 °F49.6 °F91 %30.16 in10.0 miSouth (180°)8.1 mphClear
2:55 AM50.5 °F48.6 °F93 %30.16 in10.0 miSouth (170°)5.8 mphClear
3:55 AM46.6 °F45.7 °F97 %30.16 in9.0 miSouth (180°)5.8 mphClear
4:55 AM51.8 °F50.0 °F94 %30.15 in10.0 miSouth (180°)5.8 mphClear
5:55 AM51.1 °F49.5 °F94 %30.18 in10.0 miCalmClear
6:55 AM48.0 °F46.6 °F95 %30.21 in9.0 miNorth (10°)5.8 mphClear
7:55 AM46.4 °F46.4 °F100 %30.21 in7.0 miSouth (190°)6.9 mphFogShallow Fog
8:55 AM56.7 °F52.2 °F85 %30.19 in10.0 miSSE (150°)6.9 mphClear
9:55 AM60.8 °F53.6 °F77 %30.20 in10.0 miSouth (190°)15.0 mphClear
10:55 AM62.4 °F52.2 °F69 %30.23 in10.0 miSSW (210°)8.1 mphClear
11:55 AM64.0 °F51.3 °F63 %30.21 in10.0 miSouth (190°)8.1 mphClear
12:55 PM67.6 °F50.0 °F53 %30.17 in10.0 miSW (220°)6.9 mphClear
1:55 PM72.5 °F49.6 °F44 %30.13 in10.0 miSW (230°)9.2 mphClear
2:55 PM76.1 °F43.9 °F32 %30.11 in10.0 miSW (220°)11.5 mphClear
3:55 PM77.5 °F41.0 °F27 %30.10 in10.0 miSW (230°)9.2 mphClear
4:55 PM76.6 °F41.2 °F28 %30.08 in10.0 miSouth (190°)12.7 mphClear
5:55 PM68.0 °F45.7 °F45 %30.09 in10.0 miSouth (180°)6.9 mphClear
6:55 PM57.6 °F45.1 °F63 %30.12 in10.0 miSouth (190°)9.2 mphClear
7:55 PM60.8 °F45.9 °F58 %30.12 in10.0 miSouth (190°)11.5 mphClear
8:55 PM59.5 °F44.4 °F57 %30.11 in10.0 miSouth (190°)13.8 mphClear
9:55 PM57.9 °F42.6 °F57 %30.12 in10.0 miSSW (210°)6.9 mphClear
10:55 PM60.6 °F45.9 °F58 %30.12 in10.0 miSW (220°)9.2 mphClear
11:55 PM62.2 °F48.2 °F60 %30.12 in10.0 miSSW (210°)16.1 mphClear
Hourly data recorded from KDYS, located miles away from Nugent, Texas







STORIES FROM OUR PARTNERS